Location: Albany
(35.0170°S, 117.8920°E)
Time: 16:34:16
(UTC+08:00)

Vanguard 2 Rocket - Visible Passes

Search period start: 24 January 2021 00:00
Search period end: 03 February 2021 00:00
Orbit: 554 x 3325 km, 32.9° (Epoch: 23 January)

Date Brightness Start Highest point End Pass type
(mag) Time Alt. Az. Time Alt. Az. Time Alt. Az.
24 Jan 9.2 01:31:54 19° ENE 01:31:54 19° ENE 01:36:46 10° E visible
24 Jan 8.3 03:37:41 27° NW 03:42:48 62° NNE 03:56:51 10° E visible
25 Jan 7.9 02:41:22 43° N 02:42:53 47° NNE 02:54:08 10° E visible
25 Jan 8.6 04:48:01 10° WNW 04:57:12 80° N 05:13:47 10° E visible
26 Jan 8.7 01:45:02 28° ENE 01:45:02 28° ENE 01:51:36 10° E visible
26 Jan 8.2 03:50:50 22° WNW 03:56:36 73° NNE 04:10:50 10° E visible
27 Jan 9.6 00:48:44 10° E 00:48:44 10° E 00:48:53 10° E visible
27 Jan 7.6 02:54:31 48° NNW 02:56:29 60° NNE 03:08:11 10° E visible
28 Jan 8.1 01:58:13 40° NE 01:58:13 40° NE 02:05:55 10° E visible
28 Jan 8.1 04:04:00 17° WNW 04:10:32 79° N 04:24:48 10° E visible
29 Jan 9.3 01:01:55 16° E 01:01:55 16° E 01:03:53 10° E visible
29 Jan 7.6 03:07:43 44° WNW 03:10:20 72° NNE 03:22:10 10° E visible
30 Jan 7.6 02:11:26 54° NE 02:11:26 54° NE 02:20:00 10° E visible
30 Jan 8.1 04:17:14 12° W 04:24:33 80° N 04:38:46 10° E visible
31 Jan 9.0 01:15:11 21° E 01:15:11 21° E 01:18:15 10° E visible
31 Jan 7.6 03:20:59 36° WNW 03:24:18 78° N 03:36:09 10° E visible
01 Feb 7.2 02:24:46 68° NNE 02:24:46 68° NNE 02:34:00 10° E visible
01 Feb 8.1 04:30:56 10° W 04:38:34 75° N 04:52:37 10° ENE visible
02 Feb 8.6 01:28:34 26° E 01:28:34 26° E 01:32:22 10° E visible
02 Feb 7.6 03:34:23 29° W 03:38:19 78° N 03:50:07 10° E visible
